INMARSAT 4-F3

Last updated on Tue Sep 22 2026 00:03:11 GMT+0000 (Coordinated Universal Time)

1 33278U 08039A 26264.48385512 -.00000141 00000+0 00000+0 0 9994 2 33278 4.3856 31.7605 0002968 165.2602 239.5658 1.00269464 47517
UTC large
Height (km)
Speed (km/s)
/
Latitude / Longitude
Inclination (degrees)
Orbital Period (minutes)
Azimuth
Elevation
Range (km)
Doppler Factor

Next 0 passes for location: London (51.5072 / 0.1276)

No passes found over London.
INMARSAT 4-F3